Weather History for Flint, MI

Change the Weather History Date:

Tuesday, February 26, 2013

  Actual Average Record
Temperature  
Mean Temperature 31 °F 28 °F  
Max Temperature 37 °F 36 °F 63 °F (2000)
Min Temperature 24 °F 19 °F -10 °F (1963)
Degree Days  
Heating Degree Days 34 37  
Month to date heating degree days 1057 1049  
Since 1 July heating degree days 4590 5013  
Cooling Degree Days 0 0  
Month to date cooling degree days 0 0  
Year to date cooling degree days 0 0  
Moisture  
Dew Point 27 °F    
Average Humidity 77    
Maximum Humidity 89    
Minimum Humidity 64    
Precipitation  
Precipitation 0.44 in 0.06 in 0.58 in (1946)
Month to date precipitation 1.42 1.36  
Year to date precipitation 5.32 2.99  
Snow  
Snow 1.50 in 0.30 in 4.40 in (2011)
Month to date snowfall 15.1 10.1  
Since 1 July snowfall 36.8 37.9  
Snow Depth 1.00 in    
Sea Level Pressure  
Sea Level Pressure 29.78 in    
Wind  
Wind Speed 14 mph (ENE)    
Max Wind Speed 24 mph    
Max Gust Speed 30 mph    
Visibility 5 miles    
Events Fog , Rain , Snow    
T = Trace of Precipitation, MM = Missing Value Source: NWS Daily Summary

Daily Weather History Graph

Daily Weather History Graph

Search for Another Location

Airport:

Trip Planner

Search our weather history database for the weather conditions in past years. The results will help you decide how hot, cold, wet, or windy it might be!

Date:

Astronomy

Feb. 26, 2013 Rise Set
Actual Time 7:15 AM EST 6:20 PM EST
Civil Twilight 6:46 AM EST 6:49 PM EST
Nautical Twilight 6:14 AM EST 7:22 PM EST
Astronomical Twilight 5:41 AM EST 7:55 PM EST
Moon 7:39 PM EST (2/26) 7:14 AM EST (2/26)
Length of Visible Light 12h 02m
Length of Day
11h 05m
Full, 99% of the Moon is Illuminated
Feb 26
Full
Mar 4
Last Quarter
Mar 11
New
Mar 19
First Quarter
Mar 27
Full

Hourly Weather History & Observations

Time (EST) Temp. Windchill Dew Point Humidity Pressure Visibility Wind Dir Wind Speed Gust Speed Precip Events Conditions
12:53 AM 27.0 °F 21.6 °F 19.9 °F 75% 30.14 in 10.0 mi East 4.6 mph - N/A   Clear
1:53 AM 27.0 °F 19.5 °F 19.9 °F 75% 30.13 in 10.0 mi ENE 6.9 mph - N/A   Clear
2:53 AM 25.0 °F 18.1 °F 19.0 °F 78% 30.13 in 10.0 mi East 5.8 mph - N/A   Clear
3:53 AM 26.1 °F 17.6 °F 21.0 °F 81% 30.10 in 8.0 mi ENE 8.1 mph - N/A   Clear
4:53 AM 28.0 °F 18.1 °F 21.0 °F 75% 30.07 in 9.0 mi East 11.5 mph - N/A   Clear
5:53 AM 28.0 °F 17.5 °F 21.0 °F 75% 30.04 in 10.0 mi ENE 12.7 mph - N/A   Clear
6:53 AM 28.9 °F 19.2 °F 21.0 °F 72% 30.01 in 10.0 mi East 11.5 mph - N/A   Clear
7:53 AM 28.9 °F 19.2 °F 21.0 °F 72% 30.02 in 10.0 mi East 11.5 mph - N/A   Clear
8:53 AM 30.0 °F 18.7 °F 21.9 °F 72% 30.01 in 9.0 mi ENE 16.1 mph - N/A   Clear
9:53 AM 32.0 °F 21.6 °F 23.0 °F 69% 29.97 in 10.0 mi East 15.0 mph - N/A   Clear
10:53 AM 33.1 °F 22.2 °F 23.0 °F 66% 29.91 in 10.0 mi East 17.3 mph 24.2 mph N/A   Clear
11:53 AM 34.0 °F 23.0 °F 24.1 °F 67% 29.88 in 10.0 mi East 18.4 mph 25.3 mph N/A   Clear
12:53 PM 35.1 °F 23.5 °F 25.0 °F 67% 29.84 in 9.0 mi East 21.9 mph 27.6 mph N/A   Scattered Clouds
1:53 PM 36.0 °F 25.0 °F 26.1 °F 67% 29.78 in 10.0 mi ENE 20.7 mph 27.6 mph N/A   Overcast
2:53 PM 35.1 °F 24.5 °F 28.0 °F 76% 29.74 in 5.0 mi ENE 18.4 mph 26.5 mph 0.03 in Rain Light Rain
3:53 PM 35.1 °F 25.5 °F 28.0 °F 76% 29.72 in 4.0 mi ENE 15.0 mph 25.3 mph 0.06 in Rain Light Rain
4:53 PM 34.0 °F 24.6 °F 28.9 °F 82% 29.72 in 3.0 mi East 13.8 mph - 0.06 in Rain Rain
4:58 PM 33.8 °F 24.3 °F 28.4 °F 81% 29.69 in 2.5 mi East 13.8 mph - 0.01 in Rain Rain
5:07 PM 33.8 °F 24.3 °F 30.2 °F 87% 29.69 in 3.0 mi East 13.8 mph - 0.03 in Rain Light Rain
5:23 PM 33.8 °F 23.2 °F 30.2 °F 87% 29.68 in 1.8 mi ENE 17.3 mph 24.2 mph 0.04 in Snow Light Snow
5:32 PM 33.8 °F 23.5 °F 30.2 °F 87% 29.68 in 0.5 mi ENE 16.1 mph - 0.05 in Fog , Snow Snow
5:35 PM 33.8 °F 23.5 °F 30.2 °F 87% 29.68 in 0.2 mi ENE 16.1 mph - 0.05 in Fog , Snow Snow
5:48 PM 33.8 °F 23.5 °F 30.2 °F 87% 29.67 in 0.5 mi ENE 16.1 mph 23.0 mph 0.07 in Fog , Snow Snow
5:50 PM 33.8 °F 23.2 °F 30.2 °F 87% 29.67 in 0.5 mi ENE 17.3 mph - 0.07 in Fog , Snow Snow
5:53 PM 34.0 °F 23.4 °F 30.9 °F 89% 29.69 in 0.5 mi ENE 17.3 mph 23.0 mph 0.08 in Fog , Snow Snow
6:02 PM 33.8 °F 23.5 °F 30.2 °F 87% 29.66 in 0.8 mi ENE 16.1 mph - 0.01 in Snow Light Snow
6:29 PM 33.8 °F 23.2 °F 30.2 °F 87% 29.65 in 2.5 mi ENE 17.3 mph - 0.01 in Snow Light Snow
6:44 PM 33.8 °F 23.2 °F 30.2 °F 87% 29.64 in 2.0 mi ENE 17.3 mph 24.2 mph 0.02 in Snow Light Snow
6:51 PM 33.8 °F 22.8 °F 30.2 °F 87% 29.65 in 2.0 mi East 18.4 mph 25.3 mph 0.02 in   Overcast
6:53 PM 34.0 °F 23.4 °F 30.9 °F 89% 29.67 in 2.0 mi East 17.3 mph 25.3 mph 0.02 in   Overcast
7:28 PM 33.8 °F 23.9 °F 30.2 °F 87% 29.63 in 1.5 mi ENE 15.0 mph 24.2 mph 0.01 in Snow Light Snow
7:53 PM 34.0 °F 23.8 °F 30.9 °F 89% 29.66 in 1.2 mi East 16.1 mph - 0.02 in Snow Light Snow
8:14 PM 33.8 °F 23.2 °F 30.2 °F 87% 29.62 in 3.0 mi East 17.3 mph - 0.01 in Snow Light Snow
8:25 PM 33.8 °F 23.2 °F 30.2 °F 87% 29.61 in 1.8 mi ENE 17.3 mph 24.2 mph 0.01 in Snow Light Snow
8:53 PM 34.0 °F 24.2 °F 30.9 °F 89% 29.64 in 2.0 mi East 15.0 mph - 0.02 in Snow Light Snow
9:02 PM 33.8 °F 23.9 °F 30.2 °F 87% 29.61 in 1.5 mi East 15.0 mph - 0.00 in Snow Light Snow
9:38 PM 33.8 °F 23.5 °F 30.2 °F 87% 29.59 in 0.5 mi ENE 16.1 mph - 0.04 in Fog , Snow Snow
9:53 PM 34.0 °F 23.8 °F 30.9 °F 89% 29.61 in 0.8 mi ENE 16.1 mph - 0.06 in Snow Light Snow
10:42 PM 33.8 °F 24.3 °F 30.2 °F 87% 29.56 in 1.0 mi ENE 13.8 mph - 0.05 in Snow Light Snow
10:53 PM 34.0 °F 24.6 °F 30.9 °F 89% 29.58 in 1.2 mi ENE 13.8 mph - 0.06 in Snow Light Snow
11:41 PM 33.8 °F 24.8 °F 30.2 °F 87% 29.54 in 2.0 mi East 12.7 mph - 0.02 in Snow Light Snow
11:53 PM 34.0 °F 24.6 °F 30.9 °F 89% 29.56 in 2.0 mi ENE 13.8 mph - 0.03 in Snow Light Snow